1488412801.08,55769,7.56,72452.3,-12.75,-26.33,-29.01,0,*67
1488412802.31,55770,7.56,72450.8,-12.77,-26.29,-28.97,0,*68
1488412803.55,55771,7.56,72448.0,-12.77,-26.39,-29.17,0,*61
1488412804.81,55772,7.56,72450.5,-12.79,-26.39,-29.01,0,*6B
1488412806.05,55773,7.56,72444.0,-12.77,-26.39,-29.01,0,*64
1488412807.31,55774,7.56,72440.0,-12.75,-26.33,-29.23,0,*6B
1488412808.54,55775,7.56,72442.0,-12.77,-26.39,-29.13,0,*61
1488412809.78,55776,7.56,72452.0,-12.75,-26.39,-29.23,0,*63
1488412811.03,55777,7.56,72452.5,-12.77,-26.29,-29.29,0,*6B
1488412812.26,55778,7.56,72450.8,-12.77,-26.23,-29.01,0,*64
1488412813.52,55779,7.56,72452.3,-12.75,-26.17,-29.07,0,*66
1488412814.79,55780,7.56,72454.5,-12.75,-26.33,-29.23,0,*60
1488412816.02,55781,7.56,72460.5,-12.75,-26.61,-29.61,0,*60
1488412817.24,55782,7.56,72454.5,-12.77,-26.61,-29.57,0,*64
1488412818.47,55783,7.56,72454.0,-12.75,-26.49,-29.23,0,*6E
1488412819.68,55784,7.56,72450.3,-12.77,-26.61,-29.45,0,*61
1488412820.92,55785,7.56,72452.8,-12.75,-26.61,-29.45,0,*62
1488412822.16,55786,7.56,72452.8,-12.77,-26.61,-29.51,0,*66
1488412823.45,55787,7.56,72454.0,-12.75,-26.55,-29.39,0,*6C
1488412824.68,55788,7.56,72454.8,-12.77,-26.55,-29.45,0,*6A
1488412825.94,55789,7.56,72452.5,-12.75,-26.33,-29.23,0,*69
1488412827.21,55790,7.56,72450.3,-12.77,-26.13,-29.01,0,*61
1488412828.45,55791,7.56,72454.5,-12.75,-26.03,-28.97,0,*6D
1488412829.7,55792,7.56,72452.5,-12.75,-25.91,-28.79,0,*66
1488412830.96,55793,7.56,72454.8,-12.75,-25.91,-28.79,0,*67
1488412832.22,55794,7.56,72458.3,-12.75,-26.17,-28.97,0,*6D
1488412833.45,55795,7.56,72448.3,-12.73,-26.49,-29.39,0,*64
1488412834.69,55796,7.56,72456.0,-12.73,-26.55,-29.57,0,*62
1488412835.97,55797,7.56,72442.5,-12.75,-26.55,-29.29,0,*6C
1488412837.2,55798,7.56,72442.8,-12.73,-26.49,-29.29,0,*68
1488412838.48,55799,7.56,72436.8,-12.75,-26.55,-29.39,0,*63
1488412839.76,55800,7.56,72440.5,-12.75,-26.55,-29.39,0,*6C
1488412841.0,55801,7.56,72440.8,-12.75,-26.61,-29.45,0,*61
1488412842.27,55802,7.56,72444.0,-12.75,-26.55,-29.57,0,*66
1488412843.53,55803,7.56,72450.0,-12.75,-26.33,-29.23,0,*64
1488412844.76,55804,7.56,72454.0,-12.75,-26.39,-29.23,0,*69
1488412846.0,55805,7.56,72458.3,-12.73,-26.55,-29.45,0,*64
1488412847.23,55806,7.56,72462.0,-12.73,-26.55,-29.61,0,*61
1488412848.47,55807,7.56,72462.0,-12.73,-26.77,-29.61,0,*60
1488412849.73,55808,7.56,72462.3,-12.75,-26.49,-29.39,0,*69
1488412850.97,55809,7.56,72454.3,-12.73,-26.33,-29.07,0,*6E
1488412852.2,55810,7.56,72448.0,-12.73,-26.49,-29.29,0,*67
1488412853.41,55811,7.56,72444.3,-12.73,-26.49,-29.23,0,*6C
1488412854.66,55812,7.56,72444.8,-12.75,-26.49,-29.29,0,*63
1488412855.92,55813,7.56,72446.0,-12.75,-26.49,-29.29,0,*62
1488412857.18,55814,7.56,72450.8,-12.75,-26.61,-29.39,0,*6E
1488412858.42,55815,7.56,72452.5,-12.75,-26.61,-29.61,0,*62
1488412859.65,55816,7.56,72454.3,-12.73,-26.71,-29.61,0,*66
1488412860.91,55817,7.56,72452.8,-12.73,-26.55,-29.39,0,*6C
1488412862.14,55818,7.56,72442.8,-12.73,-26.61,-29.39,0,*64
1488412863.38,55819,7.56,72444.5,-12.73,-26.77,-29.61,0,*6F
1488412864.59,55820,7.56,72442.8,-12.73,-26.61,-29.45,0,*64
1488412865.82,55821,7.56,72446.3,-12.73,-26.39,-29.13,0,*6B
1488412867.08,55822,7.56,72448.8,-12.75,-26.49,-29.13,0,*69
1488412868.34,55823,7.56,72454.8,-12.75,-26.39,-29.29,0,*66
1488412869.59,55824,7.56,72450.3,-12.73,-26.55,-29.39,0,*6C
1488412870.82,55825,7.56,72446.8,-12.73,-26.61,-29.39,0,*6A
1488412872.08,55826,7.56,72448.3,-12.69,-26.55,-29.39,0,*65
1488412873.34,55827,7.56,72448.0,-12.69,-26.55,-29.39,0,*64
1488412874.6,55828,7.56,72450.3,-12.69,-26.55,-29.39,0,*6B
1488412875.86,55829,7.56,72452.0,-12.69,-26.55,-29.39,0,*6A
1488412877.07,55830,7.56,72460.3,-12.69,-26.45,-29.07,0,*6E
1488412878.3,55831,7.56,72456.8,-12.73,-26.07,-28.91,0,*6C
1488412879.5,55832,7.56,72448.8,-12.73,-26.23,-28.97,0,*6F
1488412880.74,55833,7.56,72448.8,-12.69,-26.29,-29.07,0,*67
1488412881.95,55834,7.56,72446.5,-12.69,-26.45,-29.23,0,*6C
1488412883.21,55835,7.56,72436.8,-12.73,-26.33,-29.17,0,*60
1488412884.48,55836,7.56,72436.8,-12.69,-26.33,-29.17,0,*68
1488412885.72,55837,7.56,72442.0,-12.67,-26.45,-29.17,0,*66
1488412886.95,55838,7.56,72450.8,-12.69,-26.45,-29.17,0,*67
1488412888.16,55839,7.56,72448.8,-12.69,-26.45,-29.07,0,*67
1488412889.4,55840,7.56,72452.0,-12.69,-26.45,-29.17,0,*68
1488412890.64,55841,7.56,72452.0,-12.67,-26.33,-29.07,0,*67
1488412891.85,55842,7.56,72452.3,-12.67,-26.45,-29.23,0,*63
1488412893.11,55843,7.56,72456.5,-12.67,-26.55,-29.39,0,*68
1488412894.37,55844,7.56,72450.8,-12.69,-26.55,-29.39,0,*61
1488412895.62,55845,7.56,72450.5,-12.67,-26.49,-29.35,0,*6F
1488412896.88,55846,7.56,72440.5,-12.67,-26.55,-29.39,0,*6D
1488412898.13,55847,7.56,72434.8,-12.67,-26.49,-29.35,0,*6D
1488412899.37,55848,7.56,72440.0,-12.67,-26.45,-29.17,0,*6E
1488412900.64,55849,7.56,72444.8,-12.67,-26.55,-29.51,0,*6C
1488412901.87,55850,7.56,72450.8,-12.67,-26.65,-29.67,0,*62
1488412903.12,55851,7.56,72452.5,-12.67,-26.81,-29.67,0,*69
1488412904.39,55852,7.56,72458.5,-12.67,-26.81,-29.73,0,*6F
1488412905.64,55853,7.56,72460.8,-12.67,-26.97,-29.79,0,*63
1488412906.88,55854,7.56,72454.0,-12.67,-27.13,-29.89,0,*66
1488412908.12,55855,7.56,72456.8,-12.67,-27.19,-29.95,0,*60
1488412909.38,55856,7.56,72462.8,-12.67,-27.19,-30.05,0,*62
1488412910.64,55857,7.56,72464.0,-12.69,-27.19,-30.05,0,*6D
1488412911.88,55858,7.56,72462.3,-12.69,-27.13,-29.89,0,*64
1488412913.11,55859,7.56,72456.8,-12.69,-26.87,-29.73,0,*6C
1488412914.33,55860,7.56,72460.0,-12.69,-26.87,-29.67,0,*63
1488412915.54,55861,7.56,72456.0,-12.67,-26.87,-29.67,0,*6C
1488412916.76,55862,7.56,72450.5,-12.69,-26.87,-29.67,0,*61
1488412918.03,55863,7.56,72446.0,-12.67,-26.97,-29.73,0,*6A
1488412919.27,55864,7.56,72440.8,-12.69,-27.13,-29.89,0,*6B
1488412920.49,55865,7.56,72444.3,-12.73,-27.07,-29.83,0,*6E
1488412921.7,55866,7.56,72444.0,-12.69,-26.87,-29.67,0,*65
1488412922.98,55867,7.56,72446.5,-12.69,-26.97,-29.89,0,*65
1488412924.24,55868,7.56,72440.8,-12.69,-27.19,-29.89,0,*6D
1488412925.47,55869,7.56,72444.0,-12.73,-27.35,-30.11,0,*60
1488412926.74,55870,7.56,72440.0,-12.73,-27.39,-30.17,0,*62
1488412927.95,55871,7.56,72446.8,-12.73,-27.29,-30.11,0,*64
1488412929.18,55872,7.56,72446.5,-12.73,-27.35,-30.11,0,*6A
1488412930.41,55873,7.56,72440.0,-12.73,-27.23,-30.11,0,*6C
1488412931.67,55874,7.56,72440.8,-12.75,-27.35,-30.27,0,*6F
1488412932.91,55875,7.56,72444.3,-12.73,-27.39,-30.27,0,*64
1488412934.17,55876,7.56,72450.5,-12.73,-27.35,-30.17,0,*68
1488412935.47,55877,7.56,72448.3,-12.75,-27.39,-30.17,0,*63
1488412936.74,55878,7.56,72452.5,-12.75,-27.39,-30.33,0,*6A
1488412938.0,55879,7.56,72450.5,-12.75,-27.35,-30.33,0,*67
1488412939.24,55880,7.56,72454.0,-12.77,-27.55,-30.39,0,*6F
1488412940.48,55881,7.56,72452.3,-12.77,-27.39,-30.33,0,*6E
1488412941.74,55882,7.56,72454.3,-12.75,-27.23,-30.23,0,*65
1488412943.01,55883,7.56,72454.5,-12.75,-27.39,-30.33,0,*6E
1488412944.22,55884,7.56,72452.0,-12.77,-27.55,-30.33,0,*61
1488412945.47,55885,7.56,72448.5,-12.77,-27.39,-30.33,0,*6A
1488412946.73,55886,7.56,72448.3,-12.79,-27.39,-30.23,0,*66
1488412947.98,55887,7.56,72450.0,-12.77,-27.29,-30.17,0,*6F
1488412949.26,55888,7.56,72454.0,-12.79,-27.29,-30.17,0,*6E
1488412950.53,55889,7.56,72450.8,-12.79,-27.39,-30.23,0,*69
1488412951.79,55890,7.56,72444.5,-12.79,-27.39,-30.23,0,*61
1488412953.06,55891,7.56,72444.8,-12.81,-27.45,-30.17,0,*6B
1488412954.31,55892,7.56,72442.0,-12.81,-27.45,-30.33,0,*6E
1488412955.55,55893,7.56,72444.8,-12.79,-27.55,-30.23,0,*68
1488412956.83,55894,7.56,72450.0,-12.79,-27.61,-30.33,0,*69
1488412958.07,55895,7.56,72452.0,-12.81,-27.67,-30.51,0,*6D
1488412959.35,55896,7.56,72458.3,-12.79,-27.61,-30.23,0,*6A
1488412960.62,55897,7.56,72456.3,-12.81,-27.39,-30.17,0,*66
1488412961.88,55898,7.56,72458.3,-12.81,-27.23,-30.01,0,*65
1488412963.13,55899,7.56,72464.0,-12.81,-27.29,-30.01,0,*6E
1488412964.37,55900,7.56,72462.5,-12.81,-27.39,-30.23,0,*6E
1488412965.61,55901,7.56,72460.8,-12.81,-27.29,-30.05,0,*6A
1488412966.85,55902,7.56,72462.0,-12.81,-27.13,-30.05,0,*60
1488412968.06,55903,7.56,72460.5,-12.85,-27.13,-30.11,0,*60
1488412969.27,55904,7.56,72460.0,-12.85,-27.13,-30.11,0,*67
1488412970.5,55905,7.56,72462.3,-12.85,-27.19,-30.11,0,*6C
1488412971.8,55906,7.56,72464.3,-12.87,-27.23,-30.17,0,*62
1488412973.07,55907,7.56,72460.5,-12.87,-27.39,-30.27,0,*6B
1488412974.31,55908,7.56,72456.8,-12.87,-27.51,-30.27,0,*6A
1488412975.53,55909,7.56,72460.8,-12.85,-27.29,-30.23,0,*62
1488412976.75,55910,7.56,72462.0,-12.85,-27.29,-30.23,0,*6A
1488412978.04,55911,7.56,72458.0,-12.87,-27.19,-30.01,0,*6A
1488412979.27,55912,7.56,72454.5,-12.87,-26.87,-29.79,0,*68
1488412980.55,55913,7.56,72454.3,-12.85,-26.97,-29.89,0,*65
1488412981.78,55914,7.56,72454.5,-12.81,-27.03,-30.05,0,*66
1488412983.03,55915,7.56,72448.8,-12.85,-26.97,-29.95,0,*6E
1488412984.27,55916,7.56,72448.3,-12.85,-27.03,-30.05,0,*60
1488412985.54,55917,7.56,72448.0,-12.81,-26.81,-29.89,0,*62
1488412986.82,55918,7.56,72458.3,-12.81,-26.97,-30.01,0,*62
1488412988.06,55919,7.56,72460.0,-12.81,-27.07,-29.89,0,*63
1488412989.33,55920,7.56,72458.8,-12.85,-26.97,-30.05,0,*69
1488412990.57,55921,7.56,72456.3,-12.81,-27.13,-30.01,0,*65
1488412991.84,55922,7.56,72458.8,-12.81,-26.97,-30.01,0,*6B
1488412993.09,55923,7.56,72450.0,-12.81,-26.81,-29.79,0,*6A
1488412994.33,55924,7.56,72454.3,-12.81,-26.65,-29.51,0,*6D
1488412995.56,55925,7.56,72456.3,-12.85,-26.65,-29.67,0,*6D
1488412996.81,55926,7.56,72458.8,-12.79,-26.65,-29.67,0,*6D
1488412998.05,55927,7.56,72462.8,-12.81,-27.07,-30.05,0,*62
1488412999.33,55928,7.56,72460.5,-12.79,-27.29,-30.17,0,*65
1488413000.56,55929,7.56,72464.8,-12.81,-27.13,-30.05,0,*69
1488413001.8,55930,7.56,72466.5,-12.81,-27.13,-30.05,0,*61
1488413003.04,55931,7.56,72460.0,-12.81,-27.07,-30.01,0,*61
1488413004.28,55932,7.56,72464.5,-12.81,-27.13,-30.01,0,*67
1488413005.52,55933,7.56,72466.3,-12.81,-27.13,-30.05,0,*62
1488413006.77,55934,7.56,72470.3,-12.81,-27.29,-30.17,0,*6F
1488413008.02,55935,7.56,72470.3,-12.79,-27.29,-30.23,0,*6E
1488413009.26,55936,7.56,72470.0,-12.81,-27.23,-30.23,0,*60
1488413010.53,55937,7.56,72464.8,-12.81,-27.23,-30.17,0,*66
1488413011.8,55938,7.56,72468.0,-12.81,-26.97,-30.01,0,*60
1488413013.05,55939,7.56,72464.8,-12.81,-26.77,-29.83,0,*6D
1488413014.32,55940,7.56,72466.3,-12.81,-26.97,-30.01,0,*6F
1488413015.56,55941,7.56,72468.3,-12.81,-27.07,-30.05,0,*62
1488413016.83,55942,7.56,72468.3,-12.81,-26.97,-30.01,0,*6D
1488413018.08,55943,7.56,72478.3,-12.81,-27.07,-30.01,0,*64
1488413019.35,55944,7.56,72474.8,-12.81,-26.81,-29.89,0,*64
1488413020.62,55945,7.56,72476.0,-12.81,-26.93,-30.01,0,*6E
1488413021.87,55946,7.56,72478.0,-12.81,-26.93,-29.83,0,*6F
1488413023.14,55947,7.56,72476.0,-12.81,-26.97,-30.01,0,*68
1488413024.38,55948,7.56,72472.8,-12.81,-27.13,-30.01,0,*6A
1488413025.62,55949,7.56,72468.8,-12.81,-27.13,-30.01,0,*6B
1488413026.89,55950,7.56,72470.8,-12.79,-27.13,-30.01,0,*64
1488413028.16,55951,7.56,72474.0,-12.79,-27.07,-29.89,0,*68
1488413029.45,55952,7.56,72474.5,-12.79,-27.23,-30.05,0,*61
1488413030.72,55953,7.56,72470.0,-12.81,-27.39,-30.17,0,*6F
1488413031.96,55954,7.56,72470.5,-12.81,-27.29,-30.05,0,*6A
1488413033.21,55955,7.56,72464.5,-12.81,-27.45,-30.33,0,*64
1488413034.48,55956,7.56,72454.3,-12.79,-27.55,-30.39,0,*6B
1488413035.71,55957,7.56,72446.0,-12.81,-27.55,-30.39,0,*6D
1488413036.95,55958,7.56,72448.5,-12.81,-27.39,-30.23,0,*63
1488413038.19,55959,7.56,72450.3,-12.81,-27.39,-30.23,0,*62
1488413039.45,55960,7.56,72452.8,-12.81,-27.39,-30.05,0,*6C
1488413040.71,55961,7.56,72458.5,-12.85,-27.19,-30.05,0,*6B
1488413041.97,55962,7.56,72460.0,-12.81,-27.23,-30.05,0,*65
1488413043.22,55963,7.56,72458.8,-12.81,-27.45,-30.33,0,*61
1488413044.47,55964,7.56,72460.3,-12.85,-27.61,-30.45,0,*65
1488413045.74,55965,7.56,72460.5,-12.85,-27.61,-30.55,0,*65
1488413047.01,55966,7.56,72458.5,-12.87,-27.55,-30.51,0,*67
1488413048.25,55967,7.56,72454.0,-12.87,-27.51,-30.45,0,*67
1488413049.5,55968,7.56,72448.3,-12.85,-27.45,-30.27,0,*6B
1488413050.71,55969,7.56,72450.3,-12.85,-27.51,-30.45,0,*6B
1488413051.99,55970,7.56,72448.3,-12.87,-27.71,-30.61,0,*65
1488413053.24,55971,7.56,72448.3,-12.87,-27.67,-30.67,0,*65
1488413054.49,55972,7.56,72456.8,-12.85,-27.61,-30.45,0,*62
1488413055.76,55973,7.56,72456.5,-12.87,-27.51,-30.51,0,*67
1488413057.02,55974,7.56,72452.3,-12.87,-27.55,-30.51,0,*64
1488413058.3,55975,7.56,72452.8,-12.87,-27.67,-30.61,0,*67
1488413059.56,55976,7.56,72452.5,-12.87,-27.67,-30.67,0,*62
1488413060.81,55977,7.56,72456.5,-12.87,-27.71,-30.67,0,*64
1488413062.09,55978,7.56,72456.0,-12.87,-27.71,-30.77,0,*6A
1488413063.36,55979,7.56,72456.0,-12.87,-27.71,-30.77,0,*6B
1488413064.61,55980,7.56,72456.5,-12.89,-27.71,-30.77,0,*63
1488413065.89,55981,7.56,72456.8,-12.91,-27.77,-30.73,0,*69
1488413067.13,55982,7.56,72456.8,-12.89,-27.55,-30.61,0,*60
1488413068.37,55983,7.56,72456.0,-12.89,-27.39,-30.27,0,*69
1488413069.62,55984,7.56,72464.3,-12.89,-27.07,-30.17,0,*60
1488413070.86,55985,7.56,72464.3,-12.89,-27.03,-30.01,0,*62
1488413072.14,55986,7.56,72468.8,-12.91,-27.23,-30.33,0,*6B
1488413073.4,55987,7.56,72454.8,-12.89,-27.19,-30.17,0,*6C
1488413074.67,55988,7.56,72442.3,-12.91,-26.97,-29.95,0,*6F
1488413075.94,55989,7.56,72446.8,-12.91,-27.23,-30.23,0,*65
1488413077.18,55990,7.56,72440.8,-12.89,-26.93,-29.95,0,*6B
1488413078.42,55991,7.56,72450.5,-12.87,-27.03,-30.11,0,*68
1488413079.66,55992,7.56,72452.3,-12.87,-27.07,-30.11,0,*6F
1488413080.93,55993,7.56,72456.0,-12.87,-27.35,-30.33,0,*6F
1488413082.2,55994,7.56,72458.3,-12.87,-27.39,-30.33,0,*64
1488413083.48,55995,7.56,72460.0,-12.87,-27.07,-30.17,0,*6E
1488413084.77,55996,7.56,72460.5,-12.87,-26.93,-30.01,0,*66
1488413086.01,55997,7.56,72452.0,-12.87,-26.87,-29.79,0,*65
1488413087.25,55998,7.56,72454.8,-12.85,-26.93,-29.95,0,*6F
1488413088.52,55999,7.56,72452.3,-12.87,-26.93,-29.95,0,*6C
1488413089.76,56000,7.56,72454.0,-12.87,-27.07,-30.11,0,*6E
1488413091.02,56001,7.56,72448.5,-12.87,-27.19,-30.27,0,*65
1488413092.27,56002,7.56,72446.5,-12.85,-27.07,-30.01,0,*6F
1488413093.54,56003,7.56,72448.8,-12.85,-26.81,-29.89,0,*69
1488413094.78,56004,7.56,72446.3,-12.85,-27.03,-30.05,0,*69
1488413096.03,56005,7.56,72446.3,-12.85,-26.97,-29.95,0,*65
1488413097.3,56006,7.56,72450.5,-12.85,-26.81,-29.89,0,*6C
1488413098.55,56007,7.56,72450.5,-12.85,-26.81,-29.95,0,*60
1488413099.82,56008,7.56,72454.5,-12.85,-26.97,-30.05,0,*69
1488413101.05,56009,7.56,72458.8,-12.85,-27.19,-30.23,0,*6B
1488413102.26,56010,7.56,72456.8,-12.85,-26.87,-29.95,0,*60
1488413103.53,56011,7.56,72458.8,-12.85,-26.97,-30.05,0,*61
1488413104.8,56012,7.56,72448.8,-12.81,-26.97,-30.01,0,*62
1488413106.1,56013,7.56,72450.3,-12.79,-26.93,-30.01,0,*60
1488413107.4,56014,7.56,72452.0,-12.79,-26.81,-30.01,0,*64
1488413108.67,56015,7.56,72454.3,-12.81,-26.97,-30.05,0,*61
1488413109.91,56016,7.56,72458.8,-12.81,-27.13,-30.17,0,*6C
1488413111.19,56017,7.56,72460.8,-12.79,-27.29,-30.17,0,*63
1488413112.41,56018,7.56,72462.3,-12.81,-27.29,-30.33,0,*6D
1488413113.7,56019,7.56,72462.5,-12.79,-27.39,-30.39,0,*60
1488413114.97,56020,7.56,72452.3,-12.81,-27.45,-30.51,0,*68
1488413116.24,56021,7.56,72456.3,-12.81,-27.45,-30.39,0,*67
1488413117.51,56022,7.56,72452.0,-12.85,-27.61,-30.55,0,*6C
1488413118.75,56023,7.56,72448.3,-12.85,-27.67,-30.55,0,*6B
1488413120.02,56024,7.56,72446.8,-12.81,-27.45,-30.39,0,*62
1488413121.26,56025,7.56,72448.3,-12.81,-27.29,-30.39,0,*69
1488413122.5,56026,7.56,72446.0,-12.85,-27.67,-30.55,0,*6E
1488413123.75,56027,7.56,72448.0,-12.85,-27.67,-30.73,0,*6B
1488413125.0,56028,7.56,72442.5,-12.85,-27.67,-30.73,0,*64
1488413126.25,56029,7.56,72440.8,-12.85,-27.45,-30.45,0,*60
1488413127.49,56030,7.56,72440.3,-12.85,-27.51,-30.55,0,*6C
1488413128.76,56031,7.56,72446.8,-12.85,-27.61,-30.55,0,*6E
1488413130.03,56032,7.56,72450.0,-12.85,-27.45,-30.55,0,*6B
1488413131.27,56033,7.56,72442.0,-12.85,-27.67,-30.55,0,*6A
1488413132.51,56034,7.56,72444.3,-12.85,-27.67,-30.55,0,*6D
1488413133.79,56035,7.5,72442.8,-12.87,-27.71,-30.77,0,*69
1488413135.04,56036,7.56,72442.3,-12.87,-27.71,-30.83,0,*61
1488413136.29,56037,7.56,72440.5,-12.85,-27.71,-30.77,0,*69
1488413137.54,56038,7.56,72444.3,-12.85,-27.71,-30.77,0,*66
1488413138.8,56039,7.56,72448.8,-12.87,-27.67,-30.67,0,*63
1488413140.08,56040,7.56,72454.8,-12.87,-27.67,-30.77,0,*6C
1488413141.31,56041,7.56,72456.0,-12.85,-27.67,-30.67,0,*6E
1488413142.56,56042,7.56,72458.8,-12.87,-27.67,-30.67,0,*6F
1488413143.84,56043,7.56,72458.8,-12.87,-27.67,-30.77,0,*6F
1488413145.09,56044,7.56,72460.5,-12.87,-27.67,-30.83,0,*63
1488413146.35,56045,7.56,72462.8,-12.87,-27.71,-30.83,0,*65
1488413147.59,56046,7.56,72460.8,-12.87,-27.71,-31.01,0,*6D
1488413148.83,56047,7.56,72466.8,-12.87,-27.77,-31.05,0,*6E
1488413150.07,56048,7.56,72466.3,-12.87,-27.77,-31.01,0,*65
1488413151.32,56049,7.56,72462.5,-12.87,-27.77,-31.05,0,*60
1488413152.56,56050,7.56,72464.8,-12.87,-27.89,-31.17,0,*6A
1488413153.81,56051,7.56,72468.3,-12.89,-28.05,-31.17,0,*6E
1488413155.1,56052,7.56,72466.0,-12.91,-28.09,-31.39,0,*64
1488413156.35,56053,7.56,72462.3,-12.89,-27.93,-31.23,0,*6B
1488413157.65,56054,7.56,72466.0,-12.91,-27.99,-31.23,0,*6F
1488413158.91,56055,7.56,72466.0,-12.91,-27.83,-31.05,0,*61
1488413160.17,56056,7.56,72466.3,-12.91,-27.83,-31.01,0,*66
1488413161.45,56057,7.56,72464.8,-12.91,-27.77,-30.89,0,*6D
1488413162.72,56058,7.56,72462.3,-12.91,-27.77,-30.89,0,*62
1488413163.96,56059,7.56,72462.0,-12.91,-27.77,-31.01,0,*62
1488413165.21,56060,7.56,72456.8,-12.91,-27.77,-31.01,0,*68
1488413166.44,56061,7.56,72460.8,-12.89,-27.71,-30.95,0,*6A
1488413167.69,56062,7.56,72462.5,-12.91,-27.77,-31.05,0,*6E
1488413168.9,56063,7.56,72462.3,-12.89,-27.71,-31.01,0,*64
1488413170.17,56064,7.56,72462.5,-12.91,-27.77,-31.11,0,*6D
1488413171.44,56065,7.56,72464.8,-12.91,-27.77,-31.11,0,*6C
1488413172.66,56066,7.56,72466.0,-12.89,-27.67,-31.01,0,*66
1488413173.9,56067,7.56,72466.0,-12.91,-27.77,-31.05,0,*6B
1488413175.17,56068,7.56,72468.5,-12.91,-27.77,-31.11,0,*61
1488413176.45,56069,7.56,72462.5,-12.91,-27.55,-30.73,0,*65
1488413177.67,56070,7.56,72458.3,-12.89,-27.55,-30.67,0,*61
1488413178.92,56071,7.56,72460.8,-12.89,-27.55,-30.77,0,*61
1488413180.16,56072,7.56,72470.5,-12.89,-27.71,-30.95,0,*68
1488413181.4,56073,7.56,72458.5,-12.89,-27.35,-30.33,0,*65
1488413182.65,56074,7.56,72452.8,-12.91,-27.77,-30.83,0,*66
1488413183.93,56075,7.56,72458.3,-12.91,-27.71,-30.73,0,*6E
1488413185.17,56076,7.56,72450.8,-12.91,-27.07,-30.23,0,*69
1488413186.41,56077,7.56,72446.3,-12.89,-27.23,-30.33,0,*66
1488413187.69,56078,7.56,72436.5,-12.89,-27.39,-30.61,0,*65
1488413188.94,56079,7.56,72438.8,-12.89,-27.61,-30.67,0,*6F
1488413190.19,56080,7.56,72432.8,-12.89,-27.55,-30.77,0,*6F
1488413191.43,56081,7.56,72436.8,-12.89,-27.67,-30.95,0,*63
1488413192.71,56082,7.56,72436.8,-12.91,-27.77,-30.89,0,*65
1488413193.96,56083,7.56,72442.8,-12.87,-27.71,-30.83,0,*6F
1488413195.21,56084,7.56,72440.0,-12.87,-27.67,-30.67,0,*65
1488413196.5,56085,7.56,72444.5,-12.87,-27.19,-30.17,0,*6A
1488413197.78,56086,7.56,72448.0,-12.87,-27.51,-30.61,0,*64
1488413199.07,56087,7.56,72450.5,-12.87,-27.39,-30.55,0,*6C
1488413200.32,56088,7.56,72442.5,-12.85,-27.51,-30.77,0,*6F
1488413201.57,56089,7.56,72432.8,-12.87,-27.51,-30.67,0,*6D
1488413202.79,56090,7.56,72436.3,-12.89,-27.51,-30.67,0,*6B
1488413204.02,56091,7.56,72442.0,-12.89,-27.51,-30.67,0,*6A
1488413205.31,56092,7.56,72450.3,-12.87,-27.23,-30.51,0,*67
1488413206.57,56093,7.56,72450.0,-12.87,-27.19,-30.45,0,*6A
1488413207.85,56094,7.56,72456.8,-12.85,-27.45,-30.73,0,*63
1488413209.1,56095,7.56,72460.0,-12.87,-27.51,-30.83,0,*6A
1488413210.36,56096,7.56,72458.5,-12.85,-27.35,-30.55,0,*62
1488413211.62,56097,7.56,72460.5,-12.85,-27.35,-30.55,0,*63
1488413212.9,56098,7.56,72462.3,-12.85,-27.45,-30.77,0,*6B
1488413214.17,56099,7.56,72464.3,-12.87,-27.51,-30.77,0,*6D
1488413215.45,56100,7.56,72462.5,-12.85,-27.61,-30.61,0,*6A
1488413216.72,56101,7.56,72466.5,-12.85,-27.35,-30.55,0,*6D
1488413217.99,56102,7.56,72468.3,-12.85,-27.35,-30.73,0,*6A
1488413219.23,56103,7.56,72472.3,-12.85,-27.51,-30.61,0,*6A
1488413220.48,56104,7.56,72468.3,-12.87,-27.71,-30.83,0,*61
1488413221.7,56105,7.56,72468.5,-12.85,-27.71,-31.01,0,*69
1488413222.95,56106,7.56,72470.8,-12.85,-27.71,-30.89,0,*6B
1488413224.2,56107,7.56,72464.5,-12.85,-27.67,-30.73,0,*68
1488413225.45,56108,7.56,72468.0,-12.85,-27.67,-30.77,0,*63
1488413226.7,56109,7.56,72464.8,-12.81,-27.55,-30.73,0,*63
1488413227.95,56110,7.56,72470.3,-12.85,-27.67,-30.77,0,*6A
1488413229.23,56111,7.56,72464.8,-12.85,-27.61,-30.89,0,*6C
1488413230.52,56112,7.56,72466.0,-12.85,-27.61,-30.77,0,*6E
1488413231.77,56113,7.56,72460.5,-12.85,-27.55,-30.77,0,*68
1488413233.02,56114,7.56,72462.5,-12.85,-27.67,-30.77,0,*6E
1488413234.24,56115,7.56,72462.3,-12.81,-27.55,-30.83,0,*61
1488413235.53,56116,7.56,72458.3,-12.81,-27.61,-30.89,0,*6F
1488413236.74,56117,7.56,72460.5,-12.85,-27.67,-31.01,0,*6D
1488413237.96,56118,7.56,72456.5,-12.85,-27.67,-31.01,0,*62
1488413239.24,56119,7.56,72456.8,-12.81,-27.61,-30.89,0,*60
1488413240.47,56120,7.56,72456.8,-12.81,-27.55,-30.83,0,*67
1488413241.71,56121,7.56,72450.3,-12.85,-27.55,-30.73,0,*6D
1488413242.99,56122,7.56,72454.0,-12.81,-27.61,-30.89,0,*68
1488413244.23,56123,7.56,72454.5,-12.81,-27.83,-31.05,0,*60
1488413245.46,56124,7.56,72454.5,-12.81,-27.83,-31.05,0,*67
1488413246.68,56125,7.56,72458.5,-12.81,-27.93,-31.05,0,*67
1488413247.95,56126,7.56,72466.0,-12.81,-27.99,-31.11,0,*6B
1488413249.22,56127,7.56,72466.3,-12.81,-27.99,-31.23,0,*6B
1488413250.46,56128,7.56,72458.8,-12.81,-27.67,-30.95,0,*69
1488413251.7,56129,7.56,72456.0,-12.81,-27.99,-31.29,0,*6F
1488413252.92,56130,7.56,72456.8,-12.85,-28.15,-31.29,0,*68
1488413254.16,56131,7.56,72452.3,-12.85,-27.71,-30.89,0,*6F
1488413255.41,56132,7.56,72452.8,-12.81,-27.55,-30.73,0,*6B
1488413256.66,56133,7.56,72458.0,-12.85,-27.67,-30.77,0,*6B
1488413257.95,56134,7.56,72462.5,-12.81,-27.61,-30.89,0,*6F
1488413259.19,56135,7.56,72462.5,-12.85,-27.99,-31.17,0,*6B
1488413260.46,56136,7.56,72466.0,-12.81,-27.99,-31.23,0,*6B
1488413261.73,56137,7.56,72466.3,-12.81,-28.09,-31.23,0,*6C
1488413262.99,56138,7.56,72466.8,-12.81,-27.83,-31.11,0,*6F
1488413264.23,56139,7.5,72470.0,-12.81,-27.77,-31.11,0,*65
1488413265.45,56140,7.56,72468.3,-12.81,-27.67,-31.05,0,*6F
1488413266.67,56141,7.56,72472.0,-12.81,-27.77,-31.05,0,*6F
1488413267.91,56142,7.56,72470.0,-12.81,-27.77,-30.95,0,*64
1488413269.14,56143,7.56,72478.0,-12.81,-27.83,-31.05,0,*66
1488413270.36,56144,7.56,72470.8,-12.85,-27.89,-31.01,0,*6B
1488413271.57,56145,7.56,72462.5,-12.85,-27.89,-31.01,0,*6A
1488413272.84,56146,7.56,72462.8,-12.85,-28.05,-31.11,0,*63
1488413274.06,56147,7.56,72462.3,-12.85,-28.15,-31.29,0,*68
1488413275.33,56148,7.56,72460.5,-12.85,-28.05,-31.11,0,*6D
1488413276.6,56149,7.56,72462.8,-12.81,-27.99,-31.23,0,*63
1488413277.87,56150,7.56,72462.3,-12.81,-27.99,-31.23,0,*6B
1488413279.11,56151,7.56,72458.5,-12.81,-28.09,-31.29,0,*66
1488413280.36,56152,7.56,72458.5,-12.81,-28.25,-31.29,0,*6B
1488413281.57,56153,7.56,72456.5,-12.81,-28.15,-31.29,0,*69
1488413282.79,56154,7.56,72456.0,-12.85,-28.15,-31.29,0,*6A
1488413284.09,56155,7.56,72456.3,-12.87,-28.25,-31.51,0,*65
1488413285.33,56156,7.5,72456.0,-12.85,-28.31,-31.51,0,*61
1488413286.55,56157,7.56,72462.0,-12.85,-28.15,-31.29,0,*69
1488413287.84,56158,7.56,72458.5,-12.87,-28.21,-31.39,0,*62
1488413289.06,56159,7.56,72462.5,-12.85,-28.31,-31.33,0,*6A
1488413290.3,56160,7.56,72470.8,-12.85,-28.31,-31.51,0,*64
1488413291.57,56161,7.56,72464.0,-12.87,-28.21,-31.33,0,*62
1488413292.82,56162,7.56,72462.3,-12.85,-28.05,-31.45,0,*64
1488413294.12,56163,7.56,72466.3,-12.87,-28.05,-31.23,0,*67
1488413295.36,56164,7.56,72468.3,-12.85,-27.89,-31.11,0,*68
1488413296.61,56165,7.56,72466.3,-12.85,-27.67,-30.89,0,*69
1488413297.86,56166,7.56,72466.0,-12.85,-27.67,-30.95,0,*67
1488413299.08,56167,7.56,72464.8,-12.85,-27.67,-31.01,0,*6A
1488413300.32,56168,7.56,72464.0,-12.85,-27.99,-31.29,0,*6E